AC5JC-1 Weather Reports


time (UTC)temp
C
wind
direction
speed
KPH
gust
KPH
rain 1hr
cm
rain 24hr
cm
rain mn
cm
humidity
%
barometer
mb
20260509211557 31 81 3.2 8.0 0.00 0.00 0.00 50 1009.1
20260509211038 31 87 1.6 4.8 0.00 0.00 0.00 50 1009.0
20260509210605 31 65 1.6 1.6 0.00 0.00 0.00 48 1009.1
20260509210045 31 347 1.6 3.2 0.00 0.00 0.00 48 1009.2
20260509205526 31 90 1.6 4.8 0.00 0.00 0.00 48 1009.3
20260509205109 31 63 1.6 3.2 0.00 0.00 0.00 48 1009.4
20260509204550 31 76 3.2 8.0 0.00 0.00 0.00 48 1009.4
20260509204050 31 114 1.6 3.2 0.00 0.00 0.00 49 1009.5
20260509203613 31 93 1.6 3.2 0.00 0.00 0.00 48 1009.5
20260509203054 31 78 1.6 3.2 0.00 0.00 0.00 49 1009.6
20260509202534 31 92 1.6 4.8 0.00 0.00 0.00 48 1009.7
20260509202117 31 31 3.2 4.8 0.00 0.00 0.00 50 1009.8
20260509201542 31 93 1.6 3.2 0.00 0.00 0.00 51 1009.7
20260509201022 31 122 1.6 8.0 0.00 0.00 0.00 52 1009.7
20260509200625 31 115 1.6 3.2 0.00 0.00 0.00 52 1009.7
20260509200046 31 82 1.6 4.8 0.00 0.00 0.00 52 1009.8
20260509195526 31 87 1.6 3.2 0.00 0.00 0.00 54 1009.8
20260509195053 31 73 1.6 8.0 0.00 0.00 0.00 52 1010.0
20260509194555 31 42 3.2 4.8 0.00 0.00 0.00 53 1010.0
20260509194101 31 66 1.6 4.8 0.00 0.00 0.00 52 1010.1
20260509193541 30 74 1.6 3.2 0.00 0.00 0.00 51 1010.2
20260509193129 31 65 3.2 4.8 0.00 0.00 0.00 50 1010.1
20260509192554 31 111 0.0 1.6 0.00 0.00 0.00 52 1010.2
20260509192117 31 70 1.6 3.2 0.00 0.00 0.00 55 1010.2
20260509191557 30 50 1.6 3.2 0.00 0.00 0.00 53 1010.3
20260509191038 30 51 3.2 8.0 0.00 0.00 0.00 53 1010.4
20260509190518 30 50 1.6 3.2 0.00 0.00 0.00 53 1010.4
20260509190101 30 339 1.6 4.8 0.00 0.00 0.00 52 1010.5
20260509185541 30 44 0.0 3.2 0.00 0.00 0.00 52 1010.6
20260509185022 30 86 1.6 3.2 0.00 0.00 0.00 53 1010.5
20260509184606 30 88 1.6 3.2 0.00 0.00 0.00 54 1010.6
20260509184106 30 69 1.6 3.2 0.00 0.00 0.00 55 1010.7
20260509183526 29 119 1.6 3.2 0.00 0.00 0.00 55 1010.7
20260509183109 30 114 3.2 4.8 0.00 0.00 0.00 54 1010.8
20260509182550 30 31 3.2 8.0 0.00 0.00 0.00 57 1010.7
20260509182133 29 45 3.2 4.8 0.00 0.00 0.00 56 1010.8
20260509181534 30 76 1.6 8.0 0.00 0.00 0.00 56 1010.9
20260509181109 29 58 1.6 1.6 0.00 0.00 0.00 55 1010.9
20260509180610 30 76 1.6 3.2 0.00 0.00 0.00 57 1010.9
20260509180031 30 42 1.6 3.2 0.00 0.00 0.00 58 1010.9
20260509175613 29 67 1.6 1.6 0.00 0.00 0.00 57 1010.9
20260509175054 29 40 1.6 3.2 0.00 0.00 0.00 57 1011.0
20260509174535 28 290 1.6 3.2 0.00 0.00 0.00 59 1011.1
20260509174117 28 46 1.6 8.0 0.00 0.00 0.00 58 1011.2
20260509173557 28 355 1.6 3.2 0.00 0.00 0.00 58 1011.2
20260509173038 28 57 1.6 4.8 0.00 0.00 0.00 59 1011.2
20260509172518 28 65 1.6 3.2 0.00 0.00 0.00 60 1011.2
20260509172223 28 76 1.6 1.6 0.00 0.00 0.00 60 1011.4
20260509171542 28 28 1.6 3.2 0.00 0.00 0.00 62 1011.4
20260509171022 28 60 1.6 3.2 0.00 0.00 0.00 62 1011.3
20260509170605 27 80 1.6 3.2 0.00 0.00 0.00 63 1011.4
20260509170047 27 96 1.6 1.6 0.00 0.00 0.00 63 1011.5
20260509165526 27 53 1.6 3.2 0.00 0.00 0.00 62 1011.5
20260509165109 27 351 3.2 4.8 0.00 0.00 0.00 62 1011.6
20260509164550 27 26 1.6 8.0 0.00 0.00 0.00 62 1011.7
20260509164030 27 316 1.6 4.8 0.00 0.00 0.00 62 1011.7
20260509163613 26 107 1.6 3.2 0.00 0.00 0.00 64 1011.7
20260509163114 26 71 1.6 3.2 0.00 0.00 0.00 65 1011.8
20260509162534 26 74 1.6 3.2 0.00 0.00 0.00 64 1011.7
20260509162117 26 235 3.2 9.7 0.00 0.00 0.00 63 1011.8
20260509161557 26 8 1.6 4.8 0.00 0.00 0.00 64 1011.7
20260509161037 26 227 1.6 8.0 0.00 0.00 0.00 64 1011.7
20260509160538 26 200 3.2 8.0 0.00 0.00 0.00 63 1011.7
20260509155541 26 356 3.2 8.0 0.00 0.00 0.00 65 1011.6
20260509155034 26 353 3.2 3.2 0.00 0.00 0.00 68 1011.7
20260509154533 25 74 1.6 1.6 0.00 0.00 0.00 69 1011.7
20260509154033 25 326 3.2 4.8 0.00 0.00 0.00 69 1011.7
20260509153534 25 74 1.6 3.2 0.00 0.00 0.00 71 1011.6
20260509153115 25 49 1.6 4.8 0.00 0.00 0.00 70 1011.6
20260509152534 24 88 3.2 4.8 0.00 0.00 0.00 70 1011.8
20260509152034 24 86 1.6 4.8 0.00 0.00 0.00 70 1011.8
20260509151527 24 103 3.2 8.0 0.00 0.00 0.00 70 1011.8
20260509151109 23 74 1.6 3.2 0.00 0.00 0.00 71 1011.8
20260509150549 23 347 1.6 4.8 0.00 0.00 0.00 73 1011.8
20260509150034 23 63 3.2 4.8 0.00 0.00 0.00 73 1011.8
20260509145554 23 3 1.6 4.8 0.00 0.00 0.00 74 1011.8
20260509145034 24 44 3.2 8.0 0.00 0.00 0.00 74 1011.9
20260509144534 23 59 1.6 3.2 0.00 0.00 0.00 74 1011.8
20260509144117 23 334 1.6 3.2 0.00 0.00 0.00 75 1011.9
20260509143557 23 288 3.2 8.0 0.00 0.00 0.00 77 1012.0
20260509143033 23 58 1.6 8.0 0.00 0.00 0.00 77 1012.0
20260509142533 23 250 1.6 3.2 0.00 0.00 0.00 79 1011.9
20260509142033 22 89 1.6 1.6 0.00 0.03 0.00 81 1011.8
20260509141527 22 160 1.6 3.2 0.00 0.05 0.00 82 1011.9
20260509141110 22 104 0.0 1.6 0.00 0.05 0.00 83 1011.9
20260509140550 21 118 0.0 3.2 0.00 0.05 0.00 85 1011.8
20260509140034 21 121 0.0 1.6 0.00 0.05 0.00 86 1011.9
20260509135534 21 118 1.6 1.6 0.00 0.05 0.00 86 1011.9
20260509135034 21 74 1.6 3.2 0.00 0.05 0.00 85 1011.9
20260509134535 21 85 1.6 3.2 0.00 0.05 0.00 86 1011.8
20260509134054 21 56 1.6 3.2 0.00 0.05 0.00 87 1011.8
20260509133534 20 100 1.6 3.2 0.00 0.05 0.00 88 1011.8
20260509133034 20 139 1.6 3.2 0.00 0.05 0.00 89 1011.8
20260509132533 20 186 1.6 3.2 0.00 0.05 0.00 89 1011.9
20260509132034 20 54 1.6 3.2 0.00 0.05 0.00 89 1011.8
20260509131534 20 69 1.6 1.6 0.00 0.05 0.00 89 1011.8
20260509131114 20 82 1.6 3.2 0.00 0.05 0.00 90 1011.8
20260509130533 20 49 1.6 3.2 0.00 0.05 0.00 91 1011.8
20260509130034 19 66 1.6 1.6 0.00 0.05 0.00 92 1011.7
20260509125534 18 50 1.6 3.2 0.00 0.05 0.00 93 1011.8
20260509125034 18 78 0.0 1.6 0.00 0.05 0.00 95 1011.9
20260509124535 18 64 0.0 1.6 0.00 0.05 0.00 96 1011.7
20260509124034 17 80 0.0 1.6 0.00 0.05 0.00 97 1011.7
20260509123533 17 0.0 0.0 0.00 0.05 0.00 97 1011.7
20260509123034 17 0.0 0.0 0.00 0.05 0.00 98 1011.6
20260509122534 17 0.0 0.0 0.00 0.05 0.00 98 1011.7
20260509122054 17 0.0 0.0 0.00 0.05 0.00 98 1011.6
20260509121534 17 0.0 0.0 0.00 0.05 0.00 98 1011.5
20260509121034 17 0.0 0.0 0.00 0.05 0.00 98 1011.5
20260509120534 17 0.0 0.0 0.00 0.05 0.00 97 1011.4
20260509120035 17 0.0 0.0 0.00 0.05 0.00 97 1011.5
20260509115534 17 0.0 0.0 0.00 0.05 0.00 97 1011.2
20260509115114 17 0.0 0.0 0.00 0.05 0.00 97 1011.1
20260509114554 17 0.0 0.0 0.00 0.05 0.00 97 1010.9
20260509114034 17 79 0.0 1.6 0.00 0.05 0.00 97 1011.0
20260509113614 17 0.0 0.0 0.00 0.05 0.00 96 1011.0
20260509113035 18 0.0 0.0 0.00 0.05 0.00 96 1010.9
20260509112034 18 69 0.0 1.6 0.00 0.05 0.00 95 1010.7
20260509111534 18 69 0.0 1.6 0.00 0.05 0.00 95 1010.7
20260509111034 18 82 0.0 1.6 0.00 0.05 0.00 95 1010.4
20260509110534 18 67 0.0 1.6 0.00 0.05 0.00 96 1010.4
20260509110034 18 0.0 0.0 0.00 0.05 0.00 96 1010.6
20260509105534 18 0.0 0.0 0.00 0.05 0.00 96 1010.6
20260509105033 18 68 0.0 1.6 0.00 0.05 0.00 96 1010.6
20260509104535 18 83 0.0 1.6 0.00 0.05 0.00 96 1010.6
20260509104034 19 78 0.0 1.6 0.00 0.05 0.00 96 1010.7
20260509103534 19 70 0.0 1.6 0.00 0.05 0.00 96 1010.6
20260509103035 19 84 0.0 1.6 0.00 0.05 0.00 96 1010.8
20260509102553 19 69 0.0 1.6 0.00 0.05 0.00 96 1010.7
20260509102033 19 0.0 0.0 0.00 0.05 0.00 96 1010.5
20260509101535 19 123 1.6 1.6 0.00 0.05 0.00 95 1010.7
20260509101034 19 136 1.6 3.2 0.00 0.05 0.00 95 1010.6
20260509100533 20 0.0 0.0 0.00 0.05 0.00 95 1010.5
20260509100034 20 0.0 0.0 0.00 0.05 0.00 94 1010.3
20260509095533 20 120 1.6 1.6 0.00 0.05 0.00 94 1009.9
20260509095054 20 111 0.0 1.6 0.00 0.05 0.00 93 1009.7
20260509094534 20 77 1.6 3.2 0.00 0.05 0.00 93 1009.6
20260509094030 20 50 1.6 4.8 0.00 0.05 0.00 92 1009.4
20260509093755 20 52 3.2 9.7 0.00 0.05 0.00 91 1009.4
20260509093054 20 55 1.6 4.8 0.00 0.15 0.00 90 1009.2
20260509092534 21 57 4.8 12.9 0.00 0.15 0.00 88 1009.0
20260509092033 21 87 6.4 20.9 0.00 0.15 0.00 86 1009.1
20260509091534 21 70 4.8 11.3 0.00 0.15 0.00 85 1009.0
20260509091034 21 62 4.8 11.3 0.00 0.15 0.00 83 1008.8
20260509090518 21 49 4.8 9.7 0.00 0.15 0.00 82 1008.7
20260509085534 21 64 4.8 11.3 0.00 0.15 0.00 80 1008.5
20260509085033 21 84 1.6 3.2 0.00 0.15 0.00 78 1008.6
20260509084553 21 20 3.2 11.3 0.00 0.15 0.00 78 1008.5
20260509084118 20 36 3.2 3.2 0.00 0.15 0.00 81 1008.3
20260509083558 19 26 3.2 11.3 0.00 0.15 0.00 86 1008.4
20260509083035 20 88 1.6 3.2 0.00 0.15 0.00 88 1007.2
20260509082534 20 97 1.6 3.2 0.00 0.15 0.00 88 1006.7
20260509082033 19 88 1.6 3.2 0.00 0.15 0.00 88 1006.7
20260509081555 19 88 1.6 3.2 0.00 0.15 0.00 89 1006.7
20260509081023 20 88 1.6 1.6 0.00 0.15 0.00 89 1006.8
20260509080606 19 113 1.6 1.6 0.00 0.15 0.00 88 1007.0
20260509080047 19 112 1.6 1.6 0.00 0.15 0.00 90 1007.4
20260509075534 19 131 1.6 3.2 0.00 0.15 0.00 92 1007.7
20260509075034 19 127 1.6 3.2 0.00 0.15 0.00 93 1007.9
20260509074534 20 122 1.6 3.2 0.00 0.15 0.00 94 1008.3
20260509074034 20 104 1.6 4.8 0.00 0.15 0.00 92 1008.8
20260509073534 20 92 1.6 3.2 0.00 0.15 0.00 92 1009.6
20260509073034 20 93 1.6 1.6 0.00 0.18 0.00 94 1009.9
20260509072534 20 89 1.6 1.6 0.00 0.20 0.00 96 1010.1
20260509072033 20 119 0.0 3.2 0.00 0.23 0.00 96 1010.5
20260509071534 20 126 1.6 1.6 0.00 0.28 0.00 97 1010.6
20260509071023 20 122 1.6 3.2 0.00 0.30 0.00 97 1010.8
20260509070626 20 121 1.6 3.2 0.00 0.41 0.00 97 1010.9
20260509070047 20 121 1.6 3.2 0.00 0.46 0.00 97 1011.0
20260509065534 20 142 1.6 4.8 0.00 0.46 0.00 97 1011.1
20260509065053 20 130 1.6 3.2 0.00 0.46 0.00 97 1011.4
20260509064535 20 124 1.6 1.6 0.00 0.46 0.00 97 1011.2
20260509064032 20 117 1.6 1.6 0.00 0.46 0.00 97 1011.6
20260509063614 20 111 0.0 1.6 0.00 0.46 0.00 97 1011.8
20260509063054 20 111 0.0 1.6 0.00 0.46 0.00 97 1011.8
20260509062534 20 119 0.0 1.6 0.00 0.46 0.00 97 1012.0
20260509062034 20 107 0.0 1.6 0.00 0.46 0.00 97 1011.9
20260509061527 20 117 0.0 1.6 0.00 0.46 0.00 97 1012.1
20260509061110 20 109 0.0 1.6 0.00 0.46 0.00 97 1012.2
20260509060550 20 144 0.0 3.2 0.00 0.46 0.00 97 1012.5
20260509060032 19 86 0.0 1.6 0.00 0.46 0.00 97 1012.4
20260509055614 19 0.0 0.0 0.00 0.46 0.00 96 1012.3
20260509055114 19 0.0 0.0 0.00 0.46 0.00 96 1012.3
20260509054555 20 0.0 0.0 0.00 0.46 0.00 96 1012.2
20260509054118 20 0.0 0.0 0.00 0.46 0.00 95 1012.0
20260509053558 20 0.0 0.0 0.00 0.46 0.00 95 1011.7
20260509053036 20 107 0.0 1.6 0.00 0.46 0.00 94 1011.5
20260509052622 20 105 0.0 1.6 0.00 0.46 0.00 94 1011.8
20260509052103 20 73 0.0 1.6 0.00 0.46 0.00 94 1012.1
20260509051536 20 47 1.6 4.8 0.00 0.46 0.00 94 1012.3
20260509051023 20 41 1.6 3.2 0.00 0.46 0.00 93 1012.4
20260509050626 20 45 1.6 4.8 0.00 0.46 0.00 93 1012.7
20260509050039 21 54 1.6 4.8 0.00 0.46 0.00 93 1012.7
20260509045547 21 20 4.8 11.3 0.00 0.46 0.46 93 1012.7
20260509045054 21 47 3.2 4.8 0.00 0.46 0.46 93 1012.6
20260509044535 20 35 3.2 4.8 0.00 0.46 0.46 94 1012.2
20260509044118 20 75 0.0 1.6 0.00 0.46 0.46 94 1011.4
20260509043558 20 110 0.0 1.6 0.00 0.46 0.46 94 1011.1
20260509043037 20 109 0.0 1.6 0.00 0.46 0.46 94 1011.1
20260509042622 20 0.0 0.0 0.00 0.46 0.46 94 1011.0
20260509042143 20 101 0.0 1.6 0.00 0.46 0.46 94 1010.9
20260509041536 20 107 0.0 1.6 0.00 0.46 0.46 94 1010.6
20260509041023 20 111 1.6 1.6 0.00 0.46 0.46 94 1010.5
20260509040606 20 111 1.6 1.6 0.00 0.46 0.46 94 1010.5
20260509040036 20 108 1.6 1.6 0.00 0.46 0.46 94 1010.6
20260509035527 20 99 0.0 1.6 0.00 0.46 0.46 94 1010.8
20260509035110 20 81 0.0 1.6 0.00 0.46 0.46 94 1010.7
20260509034551 20 0.0 0.0 0.00 0.46 0.46 93 1010.7
20260509034031 20 128 0.0 1.6 0.00 0.46 0.46 93 1010.6
20260509033614 20 96 1.6 3.2 0.00 0.46 0.46 92 1010.6
20260509033055 21 92 0.0 1.6 0.00 0.46 0.46 92 1010.6
20260509032555 21 60 1.6 8.0 0.00 0.46 0.46 91 1010.9
20260509032119 21 76 3.2 8.0 0.00 0.46 0.46 91 1010.7
20260509031558 21 57 3.2 8.0 0.00 0.46 0.46 91 1010.7
20260509031035 20 64 1.6 4.8 0.00 0.46 0.46 92 1010.6
20260509030535 20 79 1.6 3.2 0.00 0.46 0.46 92 1010.3
20260509030036 20 76 0.0 1.6 0.00 0.46 0.46 92 1010.0
20260509025535 20 75 1.6 1.6 0.00 0.46 0.46 92 1009.8
20260509025035 20 96 0.0 1.6 0.00 0.46 0.46 92 1009.5
20260509024535 20 109 0.0 1.6 0.00 0.46 0.46 92 1009.3
20260509024035 20 0.0 0.0 0.00 0.46 0.46 92 1009.2
20260509023535 20 123 0.0 4.8 0.00 0.46 0.46 92 1009.0
20260509023036 20 100 0.0 1.6 0.00 0.46 0.46 92 1008.8
20260509022535 20 118 1.6 3.2 0.00 0.46 0.46 91 1008.4
20260509022035 21 123 1.6 3.2 0.00 0.46 0.46 91 1008.5
20260509021536 21 121 1.6 3.2 0.00 0.46 0.46 91 1008.6
20260509021035 21 122 1.6 3.2 0.00 0.46 0.46 90 1008.5
20260509020535 21 113 1.6 1.6 0.00 0.46 0.46 90 1008.5
20260509020036 21 116 1.6 1.6 0.00 0.46 0.46 90 1008.3
20260509015535 21 115 1.6 1.6 0.00 0.46 0.46 90 1008.4
20260509015035 21 117 1.6 1.6 0.00 0.46 0.46 90 1008.4
20260509014555 21 124 1.6 3.2 0.00 0.46 0.46 89 1008.4
20260509014035 21 124 1.6 3.2 0.00 0.46 0.46 89 1008.7
20260509013535 21 116 1.6 1.6 0.00 0.46 0.46 88 1008.8
20260509013036 21 114 1.6 1.6 0.00 0.46 0.46 88 1008.9
20260509012535 21 103 0.0 1.6 0.00 0.46 0.46 88 1009.1
20260509012035 21 105 0.0 1.6 0.00 0.46 0.46 87 1009.1
20260509011536 21 101 0.0 1.6 0.00 0.46 0.46 87 1009.1
20260509011035 21 0.0 0.0 0.00 0.46 0.46 87 1009.1
20260509010535 22 99 0.0 1.6 0.00 0.46 0.46 86 1009.0
20260509010035 22 114 1.6 1.6 0.00 0.46 0.46 86 1008.9
20260509005555 22 117 1.6 1.6 0.00 0.46 0.46 86 1009.0
20260509005035 22 108 0.0 1.6 0.00 0.46 0.46 85 1009.0
20260509004536 22 110 1.6 3.2 0.00 0.46 0.46 85 1008.9
20260509004035 22 105 0.0 1.6 0.00 0.46 0.46 85 1008.9
20260509003536 22 120 1.6 1.6 0.00 0.46 0.46 84 1008.8
20260509003024 22 94 1.6 3.2 0.00 0.46 0.46 84 1008.8
20260509002607 22 113 1.6 3.2 0.00 0.46 0.46 84 1008.6
20260509002047 22 108 1.6 3.2 0.00 0.46 0.46 83 1008.6
20260509001528 22 129 1.6 3.2 0.00 0.46 0.46 83 1008.5
20260509001110 22 144 3.2 4.8 0.00 0.46 0.46 83 1008.5
20260509000550 22 141 3.2 4.8 0.00 0.46 0.46 83 1008.5
20260509000031 22 138 1.6 3.2 0.00 0.46 0.46 83 1008.7
20260508235614 22 119 1.6 3.2 0.00 0.46 0.46 83 1008.7
20260508235115 22 131 1.6 3.2 0.00 0.46 0.46 82 1008.7
20260508234535 22 121 1.6 3.2 0.00 0.46 0.46 82 1008.7
20260508234035 22 132 1.6 3.2 0.00 0.46 0.46 81 1008.8
20260508233615 23 141 1.6 3.2 0.00 0.46 0.46 79 1008.9
20260508233035 23 146 1.6 3.2 0.00 0.46 0.46 78 1008.9
20260508232535 23 146 1.6 3.2 0.00 0.46 0.46 78 1008.9
20260508232036 23 143 1.6 4.8 0.00 0.46 0.46 77 1009.0
20260508231535 23 149 1.6 4.8 0.00 0.46 0.46 77 1009.0
20260508231035 24 135 1.6 3.2 0.00 0.46 0.46 77 1009.1
20260508230535 24 130 1.6 3.2 0.00 0.46 0.46 76 1009.0
20260508230035 24 124 1.6 3.2 0.00 0.46 0.46 76 1009.1
20260508225535 24 172 1.6 4.8 0.00 0.46 0.46 75 1009.1
20260508225035 24 116 1.6 4.8 0.00 0.46 0.46 74 1009.0
20260508224535 24 148 1.6 3.2 0.00 0.46 0.46 75 1009.0
20260508224036 24 139 1.6 3.2 0.00 0.46 0.46 74 1009.1
20260508223535 25 123 1.6 3.2 0.00 0.46 0.46 74 1009.0
20260508223035 24 142 1.6 4.8 0.00 0.46 0.46 74 1009.1
20260508222536 25 188 1.6 3.2 0.00 0.46 0.46 72 1009.0
20260508222035 25 149 1.6 3.2 0.00 0.46 0.46 72 1009.0
20260508221536 25 129 1.6 3.2 0.00 0.46 0.46 72 1009.0
20260508221035 24 163 3.2 4.8 0.00 0.46 0.46 72 1009.0
20260508220535 24 154 3.2 4.8 0.00 0.46 0.46 72 1009.1
20260508220138 24 144 3.2 8.0 0.00 0.46 0.46 72 1009.1
20260508215619 25 153 3.2 4.8 0.00 0.46 0.46 72 1009.0
20260508215040 25 176 3.2 4.8 0.00 0.46 0.46 71 1009.1
20260508214535 25 150 3.2 4.8 0.00 0.46 0.46 71 1009.0
20260508214035 25 164 1.6 3.2 0.00 0.46 0.46 71 1009.0
20260508213535 25 161 3.2 4.8 0.00 0.46 0.46 71 1009.1
20260508213036 25 142 3.2 4.8 0.00 0.46 0.46 71 1009.0
20260508212623 25 134 1.6 4.8 0.00 0.46 0.46 70 1009.3
20260508212046 25 150 1.6 4.8 0.00 0.46 0.46 70 1009.3